Вернуться в каталог

FREGAT DEB

АктивенLEO
NORAD 45635·DEBRIS·🇷🇺 Russia

Запущен Jul 18, 2011 с Baikonur Cosmodrome

Loading…

Ближайшие Пролёты (ближайшие 24 часа)

TLE

СвежийSource: Space-Track

Эпоха: Sep 14, 2026, 05:19 UTC

1 45635U 11037AB  26257.22190256  .00037527  00000-0  39266-2 0  9996
2 45635  51.1549 344.6380 0680519 304.6423  49.2125 13.91831428273633

Отслеживайте FREGAT DEB в реальном времени с AllMySat

Download on the App Store